This demonstration page uses our WeatherBlox Daily Observations layout. Learn more.

Left ArrowRight Arrow

Hourly Observations for November 7, 2022

Temp ( °F °C ) Dew Point ( °F °C ) Humidity (%) Winds ( mph kmh ) Pressure ( in mb ) Visibility ( mi km ) Precip ( " mm )
12:55 am 00:55 Clear 37 2.7 24 -4.3 60 60 Calm 30.44 1031 10 16 0.00 0.00
1:55 am 01:55 Clear 41 5 17 -8.5 37 37 NNE 5 7 30.44 1031 10 16 0.00 0.00
2:55 am 02:55 Cloudy 44 6.8 15 -9.2 31 31 NNE 7 11 30.45 1031 10 16 0.00 0.00
3:55 am 03:55 Cloudy 41 4.8 18 -7.7 40 40 N 6 9 30.48 1032 10 16 0.00 0.00
4:55 am 04:55 Cloudy 41 4.9 17 -8.6 37 37 NE 3 6 30.51 1033 10 16 0.00 0.00
5:55 am 05:55 Cloudy 39 4 17 -8.1 41 41 NE 6 9 30.52 1034 10 16 0.00 0.00
6:55 am 06:55 Cloudy 39 4.1 16 -9 38 38 ENE 10 17 30.52 1034 10 16 0.00 0.00
7:55 am 07:55 Cloudy 40 4.4 16 -8.7 38 38 NE 9 15 30.55 1035 10 16 0.00 0.00
8:55 am 08:55 Mostly Cloudy 40 4.5 16 -8.9 37 37 ENE 9 15 30.57 1035 10 16 0.00 0.00
10:55 am 10:55 Sunny 47 8.6 16 -8.9 28 28 ENE 8 13 30.57 1035 10 16 0.00 0.00
11:55 am 11:55 Sunny 50 9.8 13 -10.4 23 23 ENE 12 19 30.53 1034 10 16 0.00 0.00
1:55 pm 13:55 Mostly Sunny 54 12.4 12 -11.3 18 18 E 12 19 30.48 1032 10 16 0.00 0.00
2:55 pm 14:55 Sunny 54 12.4 12 -11.3 18 18 E 12 19 30.46 1031 10 16 0.00 0.00
3:55 pm 15:55 Sunny 53 11.9 13 -10.4 20 20 E 13 20 30.45 1031 10 16 0.00 0.00
4:55 pm 16:55 Sunny 51 10.7 16 -9.1 24 24 E 9 15 30.44 1031 10 16 0.00 0.00
6:55 pm 18:55 Clear 46 8 20 -6.9 34 34 E 13 20 30.43 1031 10 16 0.00 0.00
7:55 pm 19:55 Clear 45 7.4 21 -6 38 38 E 13 20 30.44 1031 10 16 0.00 0.00
8:55 pm 20:55 Clear 44 6.6 23 -4.8 44 44 E 13 20 30.43 1031 10 16 0.00 0.00
9:55 pm 21:55 Clear 44 6.6 23 -4.8 44 44 E 14 22 30.43 1031 10 16 0.00 0.00
10:55 pm 22:55 Clear 43 6.3 23 -4.8 45 45 E 13 20 30.41 1030 10 16 0.00 0.00
11:55 pm 23:55 Clear 42 5.8 24 -4.4 48 48 E 10 17 30.40 1029 10 16 0.00 0.00

Powered by AerisWeather